Wisdom Guild ホーム

ショップ情報

登録データ

13,520 件

検索フィルター

カード名

値段

円 ~

在庫

枚 ~

カードショップはま屋登録済みカード一覧

カード名価格セット言語在庫状態最終更新最終チェック
紅蓮地獄Pyroclasm50M10JPN4 枚売り場18/04/22 01:5318/04/25 02:01
熱情Fervor50M13JPN1 枚売り場18/04/22 01:5318/04/25 02:01
石の雨Stone Rain50CHKENG6 枚売り場18/04/22 01:5318/04/25 02:01
ゴブリンの手投げ弾Goblin Grenade50M12JPN5 枚売り場18/04/22 01:5318/04/25 02:01
電弧の痕跡Arc Trail20SOMJPN1 枚売り場18/04/22 01:5318/04/25 02:01
轟く怒りThunderous Wrath20AVRJPN7 枚売り場18/04/22 01:5318/04/25 02:01
古えの遺恨Ancient Grudge50TSPJPN2 枚売り場18/04/22 01:5318/04/25 02:01
古えの遺恨Ancient Grudge50ISDENG14 枚売り場18/04/22 01:5318/04/25 02:01
憎悪剥ぎHateflayer200EVEJPN1 枚売り場18/04/22 01:5318/04/25 02:01
蟻の解き放ちRelease the Ants50MORJPN4 枚売り場18/04/22 01:5318/04/25 02:01
カード名価格セット言語在庫状態リンク最終更新最終チェック
モグの戦争司令官Mogg War Marshal50TSPJPN5 枚売り場18/04/22 01:5318/04/25 02:01
稲妻のやっかいものLightning Mauler30AVRJPN8 枚売り場18/04/22 01:5318/04/25 02:01
狡猾な火花魔道士Cunning Sparkmage20WWKJPN1 枚売り場18/04/22 01:5318/04/25 02:01
森林の墓地Woodland Cemetery500DOMENG4 枚売り場18/04/22 01:5318/04/25 02:01
硫黄の滝Sulfur Falls550DOMENG1 枚売り場18/04/25 02:0118/04/25 02:01
内陸の湾港Hinterland Harbor500DOMENG4 枚売り場18/04/22 01:5318/04/25 02:01
孤立した礼拝堂Isolated Chapel500DOMENG4 枚売り場18/04/23 02:0518/04/25 02:01
陰謀団の要塞Cabal Stronghold500DOMENG4 枚売り場18/04/22 01:5318/04/25 02:01
断崖の避難所Clifftop Retreat500DOMENG4 枚売り場18/04/22 01:5318/04/25 02:01
ウェザーライトWeatherlight700DOMENGなし売り場18/04/21 01:5918/04/25 02:01
カード名価格セット言語在庫状態リンク最終更新最終チェック
クルーグの災い魔、トラクソスTraxos, Scourge of Kroog700DOMENG8 枚売り場18/04/21 01:5918/04/25 02:01
モックス・アンバーMox Amber3,500DOMENGなし売り場18/04/21 01:5918/04/25 02:01
スランの経時門Thran Temporal Gateway350DOMENG8 枚売り場18/04/21 01:5918/04/25 02:01
ミシュラの自己複製機械Mishra's Self-Replicator100DOMENG8 枚売り場18/04/21 01:5918/04/25 02:01
金粉の水蓮Gilded Lotus500DOMENG8 枚売り場18/04/21 01:5918/04/25 02:01
多勢の兜Helm of the Host300DOMENG8 枚売り場18/04/21 01:5918/04/25 02:01
先祖の刃Forebear's Blade100DOMENG8 枚売り場18/04/21 01:5918/04/25 02:01
ドミナリアの英雄、テフェリーTeferi, Hero of Dominaria2,000DOMENGなし売り場18/04/21 01:5918/04/25 02:01
再鍛の黒き剣Blackblade Reforged200DOMENG8 枚売り場18/04/21 01:5918/04/25 02:01
上古族の栄華な再誕Primevals' Glorious Rebirth200DOMENG8 枚売り場18/04/21 01:5918/04/25 02:01
カード名価格セット言語在庫状態リンク最終更新最終チェック
墓場波、ムルドローサMuldrotha, the Gravetide1,000DOMENGなし売り場18/04/21 01:5918/04/25 02:01
テフェリーの誓いOath of Teferi200DOMENG8 枚売り場18/04/21 01:5918/04/25 02:01
永遠の大魔道師、ジョダーJodah, Archmage Eternal200DOMENG8 枚売り場18/04/21 01:5918/04/25 02:01
総将軍ラーダGrand Warlord Radha300DOMENG8 枚売り場18/04/21 01:5918/04/25 02:01
ウェザーライトの艦長、ジョイラJhoira, Weatherlight Captain550DOMENGなし売り場18/04/21 01:5918/04/25 02:01
転生するデアリガズDarigaaz Reincarnated700DOMENGなし売り場18/04/21 01:5918/04/25 02:01
ウィンドグレイスの騎士、アルイェールAryel, Knight of Windgrace200DOMENG8 枚売り場18/04/21 01:5918/04/25 02:01
新緑の魔力Verdant Force50DOMENG8 枚売り場18/04/21 01:5918/04/25 02:01
ウィンドグレイスの騎士、アルイェールAryel, Knight of Windgrace200DOMJPN6 枚売り場18/04/25 02:0118/04/25 02:01
縄張り持ちのアロサウルスTerritorial Allosaurus200DOMENG8 枚売り場18/04/21 01:5918/04/25 02:01
カード名価格セット言語在庫状態リンク最終更新最終チェック
森の目覚めSylvan Awakening100DOMENG8 枚売り場18/04/21 01:5918/04/25 02:01
鉄葉のチャンピオンSteel Leaf Champion700DOMENGなし売り場18/04/23 02:0518/04/25 02:01
ヤヴィマヤの化身、ムルタニMultani, Yavimaya's Avatar400DOMENGなし売り場18/04/21 01:5918/04/25 02:01
ドミナリアの大修復The Mending of Dominaria200DOMENG8 枚売り場18/04/21 01:5918/04/25 02:01
カマールのドルイド的誓約Kamahl's Druidic Vow250DOMENG8 枚売り場18/04/21 01:5918/04/25 02:01
養育者、マーウィンMarwyn, the Nurturer150DOMENG8 枚売り場18/04/21 01:5918/04/25 02:01
刃の翼ヴェリックスVerix Bladewing500DOMENGなし売り場18/04/21 01:5918/04/25 02:01
双頭巨人Two-Headed Giant50DOMENG8 枚売り場18/04/21 01:5918/04/25 02:01
包囲攻撃の司令官Siege-Gang Commander150DOMENG8 枚売り場18/04/21 01:5918/04/25 02:01
不死身、スクイーSquee, the Immortal300DOMENG8 枚売り場18/04/21 01:5918/04/25 02:01

免責事項

本システムは、各カードショップ様の了承のもと自動的にシングルカード価格データを収集・解析し提供しております。 実際の販売価格や在庫は変動しますので、この価格で販売されることを保証するものではありません。 また、カードの状態や販売方法などは各カードショップ様によって異なる他、データは自動解析されたものですので、誤記等が存在する可能性もあります。 購入時に各ショップ様のウェブサイトにてよく御確認ください。
特記無き価格情報は、税込価格です。ショップでの表示が税抜のみの場合は、独自に消費税相当額を加算しています。
本システムを利用したことによるいかなる損害も保証致しかねますので、御認識の程宜しく御願い致します。
© 1999-2018 Wisdom Guild, OWLAIR networks, All rights reserved.
管理者連絡先 | 権利表記 (実行時間:0.49 秒)